When you browse on this site, cookies collect data to enhance your experience and personalize the content and advertising you see.
Visit our Privacy Policy to learn more. By continuing to use the site, you agree to this use of cookies and data.
  • In Hungary
  • List of Countries
  • For 7 days
  • Water Temperature
  • Weather Map
  • News
  • Weather Widgets
  • user-avatar
    Login

    Hourly Weather Dhuburi

    Today, 22 August, Thursday

    Time Temperature Precipitation Wind Pressure Humidity
    00:00 +29°C° 0 mm 0 mps 751 mmHg 73%
    01:00 +31°C° 0 mm 1 mps 750 mmHg 74%
    02:00 +30°C° 0 mm 1 mps 750 mmHg 75%
    03:00 +30°C° 0 mm 1 mps 749 mmHg 77%
    04:00 +30°C° 0 mm 1 mps 749 mmHg 78%
    05:00 +30°C° 0 mm 1 mps 749 mmHg 79%
    06:00 +28°C° 0 mm 0 mps 749 mmHg 83%
    07:00 +30°C° 0 mm 0 mps 749 mmHg 78%
    08:00 +31°C° 0 mm 0 mps 750 mmHg 72%
    09:00 +32°C° 0 mm 0 mps 750 mmHg 66%
    10:00 +33°C° 0 mm 0 mps 749 mmHg 62%
    11:00 +36°C° 0 mm 1 mps 749 mmHg 58%
    12:00 +35°C° 0 mm 0 mps 749 mmHg 53%
    13:00 +37°C° 0 mm 1 mps 749 mmHg 53%
    14:00 +37°C° 0 mm 1 mps 748 mmHg 52%
    15:00 +37°C° 0 mm 1 mps 747 mmHg 51%
    16:00 +37°C° 0.1 mm 1 mps 747 mmHg 55%
    17:00 +36°C° 0.1 mm 1 mps 747 mmHg 60%
    18:00 +35°C° 0.1 mm 1 mps 747 mmHg 64%
    19:00 +35°C° 0.6 mm 2 mps 748 mmHg 67%
    20:00 +34°C° 0.6 mm 2 mps 749 mmHg 70%
    21:00 +34°C° 0.6 mm 3 mps 750 mmHg 73%
    22:00 +31°C° 7.4 mm 3 mps 750 mmHg 79%
    23:00 +30°C° 7.4 mm 4 mps 750 mmHg 86%

    Tomorrow, 23 August, Friday

    Time Temperature Precipitation Wind Pressure Humidity
    00:00 +29°C° 7.4 mm 4 mps 750 mmHg 93%
    01:00 +29°C° 0.8 mm 4 mps 750 mmHg 92%
    02:00 +29°C° 0.8 mm 4 mps 750 mmHg 92%
    03:00 +28°C° 0.8 mm 3 mps 750 mmHg 92%
    04:00 +28°C° 1.4 mm 3 mps 750 mmHg 92%
    05:00 +28°C° 1.4 mm 2 mps 750 mmHg 92%
    06:00 +27°C° 1.4 mm 1 mps 750 mmHg 92%
    07:00 +28°C° 0.4 mm 1 mps 750 mmHg 89%
    08:00 +26°C° 0.4 mm 0 mps 751 mmHg 87%
    09:00 +27°C° 0.4 mm 0 mps 751 mmHg 84%
    10:00 +28°C° 0.1 mm 0 mps 751 mmHg 80%
    11:00 +31°C° 0.1 mm 1 mps 751 mmHg 76%
    12:00 +32°C° 0.1 mm 1 mps 750 mmHg 71%
    13:00 +33°C° 0.2 mm 1 mps 750 mmHg 70%
    14:00 +33°C° 0.2 mm 1 mps 749 mmHg 70%
    15:00 +35°C° 0.2 mm 2 mps 749 mmHg 69%
    16:00 +33°C° 0.5 mm 1 mps 749 mmHg 72%
    17:00 +32°C° 0.5 mm 1 mps 749 mmHg 75%
    18:00 +32°C° 0.5 mm 1 mps 749 mmHg 79%
    19:00 +31°C° 2.1 mm 2 mps 750 mmHg 81%
    20:00 +31°C° 2.1 mm 3 mps 751 mmHg 84%
    21:00 +30°C° 2.1 mm 3 mps 751 mmHg 86%
    22:00 +29°C° 5.2 mm 3 mps 751 mmHg 89%
    23:00 +29°C° 5.2 mm 3 mps 751 mmHg 92%

    Day after tomorrow, 24 August, Saturday

    Time Temperature Precipitation Wind Pressure Humidity
    00:00 +28°C° 5.2 mm 3 mps 751 mmHg 95%
    01:00 +28°C° 2.9 mm 3 mps 751 mmHg 95%
    02:00 +28°C° 2.9 mm 2 mps 751 mmHg 94%
    03:00 +28°C° 2.9 mm 2 mps 751 mmHg 94%
    04:00 +28°C° 1.8 mm 2 mps 751 mmHg 94%
    05:00 +28°C° 1.8 mm 3 mps 751 mmHg 93%
    06:00 +28°C° 1.8 mm 4 mps 751 mmHg 93%
    07:00 +28°C° 1.5 mm 3 mps 752 mmHg 93%
    08:00 +28°C° 1.5 mm 3 mps 752 mmHg 93%
    09:00 +27°C° 1.5 mm 3 mps 752 mmHg 94%
    10:00 +28°C° 0.8 mm 3 mps 752 mmHg 90%
    11:00 +29°C° 0.8 mm 2 mps 752 mmHg 87%
    12:00 +30°C° 0.8 mm 2 mps 752 mmHg 84%
    13:00 +31°C° 0 mm 2 mps 751 mmHg 81%
    14:00 +31°C° 0 mm 2 mps 750 mmHg 79%
    15:00 +32°C° 0 mm 1 mps 749 mmHg 77%
    16:00 +31°C° 0 mm 2 mps 749 mmHg 79%
    17:00 +31°C° 0 mm 2 mps 749 mmHg 81%
    18:00 +31°C° 0 mm 2 mps 749 mmHg 83%
    19:00 +30°C° 0.4 mm 2 mps 749 mmHg 85%
    20:00 +30°C° 0.4 mm 2 mps 750 mmHg 86%
    21:00 +29°C° 0.4 mm 2 mps 751 mmHg 87%
    22:00 +29°C° 0.3 mm 2 mps 751 mmHg 88%
    23:00 +29°C° 0.3 mm 2 mps 751 mmHg 88%

    25 August, Sunday

    Time Temperature Precipitation Wind Pressure Humidity
    00:00 +28°C° 0.3 mm 2 mps 752 mmHg 88%
    01:00 +28°C° 0.8 mm 2 mps 751 mmHg 90%
    02:00 +28°C° 0.8 mm 2 mps 751 mmHg 91%
    03:00 +28°C° 0.8 mm 2 mps 750 mmHg 92%
    04:00 +28°C° 0.2 mm 2 mps 751 mmHg 92%
    05:00 +28°C° 0.2 mm 1 mps 751 mmHg 93%
    06:00 +27°C° 0.2 mm 1 mps 751 mmHg 93%
    07:00 +29°C° 0 mm 1 mps 752 mmHg 88%
    08:00 +30°C° 0 mm 1 mps 752 mmHg 83%
    09:00 +31°C° 0 mm 1 mps 753 mmHg 78%
    10:00 +32°C° 0.2 mm 1 mps 752 mmHg 73%
    11:00 +33°C° 0.2 mm 1 mps 752 mmHg 68%
    12:00 +34°C° 0.2 mm 1 mps 752 mmHg 63%
    13:00 +35°C° 0 mm 1 mps 751 mmHg 62%
    14:00 +35°C° 0 mm 1 mps 750 mmHg 61%
    15:00 +35°C° 0 mm 1 mps 749 mmHg 60%
    16:00 +32°C° 0 mm 0 mps 749 mmHg 64%
    17:00 +32°C° 0 mm 0 mps 749 mmHg 68%
    18:00 +31°C° 0 mm 0 mps 748 mmHg 72%
    19:00 +33°C° 0.1 mm 1 mps 749 mmHg 73%
    20:00 +32°C° 0.1 mm 1 mps 750 mmHg 74%
    21:00 +31°C° 0.1 mm 1 mps 751 mmHg 75%
    22:00 +31°C° 0.9 mm 1 mps 751 mmHg 77%
    23:00 +31°C° 0.9 mm 2 mps 751 mmHg 78%

    26 August, Monday

    Time Temperature Precipitation Wind Pressure Humidity
    00:00 +30°C° 0.9 mm 2 mps 751 mmHg 79%
    01:00 +30°C° 0.1 mm 2 mps 751 mmHg 81%
    02:00 +30°C° 0.1 mm 2 mps 750 mmHg 83%
    03:00 +29°C° 0.1 mm 1 mps 750 mmHg 85%
    04:00 +29°C° 0 mm 1 mps 750 mmHg 85%
    05:00 +29°C° 0 mm 1 mps 751 mmHg 86%
    06:00 +29°C° 0 mm 1 mps 751 mmHg 87%
    07:00 +30°C° 0 mm 1 mps 751 mmHg 82%
    08:00 +31°C° 0 mm 1 mps 751 mmHg 77%
    09:00 +32°C° 0 mm 1 mps 751 mmHg 72%
    10:00 +33°C° 0 mm 1 mps 751 mmHg 68%
    11:00 +34°C° 0 mm 1 mps 750 mmHg 65%
    12:00 +35°C° 0 mm 1 mps 750 mmHg 62%
    13:00 +35°C° 0.3 mm 1 mps 749 mmHg 61%
    14:00 +37°C° 0.3 mm 2 mps 749 mmHg 60%
    15:00 +37°C° 0.3 mm 2 mps 748 mmHg 60%
    16:00 +36°C° 0 mm 2 mps 748 mmHg 63%
    17:00 +35°C° 0 mm 2 mps 748 mmHg 67%
    18:00 +35°C° 0 mm 2 mps 747 mmHg 71%
    19:00 +34°C° 0 mm 2 mps 748 mmHg 72%
    20:00 +32°C° 0 mm 2 mps 749 mmHg 74%
    21:00 +32°C° 0 mm 2 mps 749 mmHg 75%
    22:00 +31°C° 0 mm 2 mps 750 mmHg 76%
    23:00 +31°C° 0 mm 1 mps 750 mmHg 77%

    27 August, Tuesday

    Time Temperature Precipitation Wind Pressure Humidity
    00:00 +31°C° 0 mm 1 mps 750 mmHg 77%
    01:00 +31°C° 0 mm 1 mps 750 mmHg 78%
    02:00 +30°C° 0 mm 1 mps 749 mmHg 79%
    03:00 +30°C° 0 mm 2 mps 749 mmHg 80%
    04:00 +30°C° 0 mm 2 mps 749 mmHg 82%
    05:00 +29°C° 0 mm 2 mps 749 mmHg 84%
    06:00 +29°C° 0 mm 2 mps 749 mmHg 85%
    07:00 +31°C° 0 mm 2 mps 750 mmHg 81%
    08:00 +32°C° 0 mm 2 mps 750 mmHg 76%
    09:00 +34°C° 0 mm 2 mps 750 mmHg 71%
    10:00 +35°C° 0 mm 2 mps 750 mmHg 68%
    11:00 +36°C° 0 mm 2 mps 749 mmHg 64%
    12:00 +37°C° 0 mm 2 mps 749 mmHg 60%
    13:00 +37°C° 0 mm 2 mps 748 mmHg 59%
    14:00 +37°C° 0 mm 2 mps 748 mmHg 58%
    15:00 +38°C° 0 mm 2 mps 747 mmHg 57%
    16:00 +37°C° 0 mm 2 mps 747 mmHg 61%
    17:00 +36°C° 0 mm 2 mps 747 mmHg 64%
    18:00 +35°C° 0 mm 2 mps 747 mmHg 67%
    19:00 +35°C° 0 mm 2 mps 748 mmHg 69%
    20:00 +34°C° 0 mm 2 mps 748 mmHg 70%
    21:00 +32°C° 0 mm 2 mps 749 mmHg 72%
    22:00 +32°C° 0 mm 2 mps 749 mmHg 73%
    23:00 +32°C° 0 mm 2 mps 749 mmHg 74%
    Show more